This is the latest recevied weather packets stored in our database for station/object N6RDS. If no packets are shown the sender has not sent any weather packets the latest 10 day(s).
| Time | Temp. | Humidity | Pressure | Rain* | Wind** | Luminosity | Snow |
|---|---|---|---|---|---|---|---|
| 1777683727 | 13.33° C | 31% | 1023.8 hPa | 0 mm | - | 22 W/m² | - |
| 1777683424 | 13.89° C | 30% | 1023.6 hPa | 0 mm | - | 26 W/m² | - |
| 1777683122 | 13.89° C | 29% | 1023.8 hPa | 0 mm | - | 30 W/m² | - |
| 1777682818 | 14.44° C | 29% | 1023.4 hPa | 0 mm | - | 36 W/m² | - |
| 1777682515 | 14.44° C | 29% | 1023.6 hPa | 0 mm | - | 37 W/m² | - |
| 1777682213 | 14.44° C | 29% | 1023.4 hPa | 0 mm | - | 40 W/m² | - |
| 1777681910 | 14.44° C | 29% | 1023.6 hPa | 0 mm | - | 44 W/m² | - |
| 1777681605 | 14.44° C | 30% | 1023.7 hPa | 0 mm | - | 44 W/m² | - |
| 1777681304 | 15° C | 29% | 1023.3 hPa | 0 mm | - | 49 W/m² | - |
| 1777681001 | 15° C | 30% | 1023.4 hPa | 0 mm | - | 54 W/m² | - |
| 1777680698 | 15° C | 29% | 1023.3 hPa | 0 mm | - | 50 W/m² | - |
| 1777680396 | 15° C | 30% | 1023.1 hPa | 0 mm | - | 51 W/m² | - |
| 1777680093 | 15° C | 29% | 1023.3 hPa | 0 mm | - | 61 W/m² | - |
| 1777679789 | 15.56° C | 29% | 1023.3 hPa | 0 mm | - | 83 W/m² | - |
| 1777679485 | 16.11° C | 27% | 1023.3 hPa | 0 mm | - | 88 W/m² | - |
| 1777679181 | 16.67° C | 28% | 1023.3 hPa | 0 mm | - | 147 W/m² | - |
| 1777678878 | 16.11° C | 28% | 1023.2 hPa | 0 mm | - | 148 W/m² | - |
| 1777678576 | 16.11° C | 27% | 1023.1 hPa | 0 mm | - | 94 W/m² | - |
| 1777678274 | 16.11° C | 28% | 1022.8 hPa | 0 mm | - | 93 W/m² | - |
| 1777677969 | 15.56° C | 28% | 1022.8 hPa | 0 mm | - | 89 W/m² | - |
| 1777677667 | 15.56° C | 29% | 1022.9 hPa | 0 mm | - | 98 W/m² | - |
| 1777677364 | 15.56° C | 27% | 1022.9 hPa | 0 mm | - | 98 W/m² | - |
| 1777677062 | 15.56° C | 27% | 1022.9 hPa | 0 mm | - | 105 W/m² | - |
| 1777676761 | 16.11° C | 27% | 1022.9 hPa | 0 mm | - | 116 W/m² | - |
| 1777676458 | 16.11° C | 27% | 1022.9 hPa | 0 mm | - | 121 W/m² | - |
* Rain latest hour (hover to see other rain measurements)
** Current wind speed in m/s (hover to see current wind gust speed)